SCP
-0 -0 -0 -0 -0 -0 0 -0 -0 -0 -0 -0 -0 -0 -0 -0 0 0 0 0 0 0 0 0 0 0 0 0 0 0 0 0 0 0 0 -0 -0 -0 -0 0 0 0 0
-0 -0 -0 -0 -0 -0 -0 -0 -0 -0 -0 -0 -0 -0 -0 -0 -0 -0 0 0 0 0 0 0 0 0 0 0 0 0 0 0 0 0 -0 -0 0 -0 -0 0 0 0 0
0 -0 -0 -0 -0 -0 -0 -0 -0 -0 -0 0 0 0 0 0 0 0 0 0 0 0 0 0 0 0 0 0 0 0 0 0 0 0 0 0 0 0 0 0 0 0 0
0 -0 -0 -0 -0 -0 -0 -0 -0 -0 -0 -0 -0 -0 0 0 0 0 0 0 0 0 0 0 0 0 0 0 0 0 0 0 0 0 1 0 1 0 0 0 0 0 0
0 -0 -0 -0 -0 -0 -0 -0 -0 -0 -0 -0 -0 -0 -0 -0 -0 0 0 0 0 0 0 0 0 0 0 0 0 1 1 1 1 1 0 0 0 0 -0 0 0 0 0
0 0 -0 -0 -0 -0 -0 -0 -0 -0 -0 -0 -0 -0 -0 0 0 0 0 0 0 0 0 0 0 0 0 0 1 0 0 0 1 1 0 0 0 0 0 0 0 0 0
0 0 0 -0 -0 -0 -0 -0 -0 -0 -0 -0 -0 -0 -0 0 0 0 0 0 0 0 0 0 0 0 0 0 0 0 0 0 0 0 0 0 1 0 0 0 1 1 1
0 0 0 0 0 -0 -0 -0 -0 -0 -0 -0 -0 -0 -0 0 0 0 0 0 0 0 0 0 0 0 0 0 0 0 0 0 0 0 0 0 0 0 0 1 1 1 1
0 0 0 0 0 0 0 0 0 0 0 0 0 0 0 0 0 0 0 0 0 0 0 0 0 0 0 0 0 0 0 0 0 0 0 0 0 0 0 1 1 1 1
0 0 0 0 0 0 0 0 0 0 0 0 0 0 0 0 0 0 0 0 0 0 0 0 0 0 0 0 0 0 0 0 0 0 0 0 0 0 0 0 0 1 1
0 0 0 0 0 0 0 0 0 0 0 0 0 0 0 0 0 0 0 0 0 0 0 0 0 0 0 0 0 0 0 0 0 0 0 0 0 0 0 1 1 1 1
0 0 0 0 0 0 0 0 0 0 0 0 0 0 0 0 0 0 0 0 0 0 0 0 0 0 0 0 0 0 0 0 0 0 0 0 0 0 0 0 1 1 1
0 0 0 0 0 0 0 0 0 0 0 0 0 0 0 0 0 0 0 0 0 0 0 0 0 0 0 0 0 0 0 0 0 0 0 0 0 0 0 1 1 1 1
0 0 0 0 0 0 0 0 0 0 0 0 0 0 0 0 0 0 0 0 0 0 0 0 0 0 0 0 0 0 0 0 0 0 0 0 0 0 0 0 1 1 1
0 0 0 0 0 0 0 0 0 0 0 0 0 0 0 0 0 0 0 0 0 0 0 0 0 0 0 0 0 0 0 0 0 0 0 0 0 0 0 1 1 1 1
0 0 0 0 0 0 0 0 0 0 0 0 0 -0 0 -0 -0 -0 -0 -0 -0 0 0 0 0 0 0 0 0 0 0 0 0 0 0 0 0 0 0 1 1 1 1
0 0 0 0 0 0 0 0 0 0 0 0 0 0 0 0 -0 -0 -0 -0 -0 -0 -0 0 0 0 0 0 0 0 0 0 0 0 0 0 0 0 0 0 1 1 1
0 0 0 0 0 0 0 0 0 0 0 0 0 0 0 0 -0 -0 -0 -0 -0 -0 -0 -0 -0 0 0 0 0 0 0 0 0 0 0 0 0 0 0 0 0 0 1
0 0 0 0 0 0 0 0 0 0 0 0 0 0 0 0 -0 -0 -0 -0 -0 -0 -0 -0 -0 -0 -0 0 0 0 0 0 0 0 0 0 0 0 0 0 0 0 1
0 0 0 0 0 0 0 0 0 0 0 -0 0 -0 0 0 0 0 -0 -0 -0 -0 -0 -0 -0 -0 0 0 0 0 0 0 0 0 0 0 0 0 0 0 0 0 0
0 0 0 0 0 0 0 0 0 0 0 0 -0 0 0 0 0 0 0 0 -0 -0 -0 -0 -0 -0 -0 0 0 0 0 0 0 0 0 0 0 0 0 0 0 0 0
0 0 0 0 0 0 0 0 0 0 -0 -0 -0 0 0 0 0 0 0 0 0 0 -0 -0 -0 -0 0 0 0 0 0 0 0 0 0 0 0 0 0 0 0 0 0
0 0 0 0 0 0 0 0 0 0 -0 -0 -0 0 0 0 0 0 0 0 0 0 0 0 0 0 0 0 0 0 0 0 0 0 0 0 0 0 0 0 0 0 0
0 0 0 0 0 0 0 0 0 0 0 -0 0 0 0 0 0 0 0 0 0 0 0 0 0 0 0 0 0 0 0 0 0 -0 0 0 0 0 0 0 0 0 0
0 0 0 0 0 0 0 0 0 0 0 -0 0 0 0 0 0 0 0 0 0 0 0 0 0 0 0 0 0 0 0 0 0 0 -0 -0 0 0 0 0 0 0 0
0 0 0 0 0 0 0 0 0 0 0 0 0 0 0 0 0 0 0 0 0 0 0 0 0 0 0 0 0 0 0 0 0 0 0 -0 -0 -0 -0 0 0 0 0
Wind_Speed_500mb
14 15 16 10 8 3 5 7 8 8 10 11 12 13 15 17 19 19 18 17 19 23 27 29 32 36 32 28 27 24 25 25 25 25 23 21 22 25 25 26 25 25 26
16 18 15 8 2 1 2 6 6 6 10 14 17 18 18 18 20 22 23 26 27 23 23 26 28 30 36 35 31 28 28 31 30 30 27 24 25 25 25 30 28 27 29
18 19 17 11 6 6 5 8 8 9 10 13 16 16 20 24 26 26 25 27 29 31 29 27 30 31 32 35 33 33 33 33 34 32 32 32 31 25 24 24 28 30 31
14 16 14 8 9 8 13 15 14 12 10 15 18 18 21 24 27 29 32 31 31 32 32 34 33 33 33 35 37 32 35 37 37 35 37 38 35 28 28 26 29 31 33
11 10 8 12 10 9 10 18 20 21 24 24 21 21 24 26 25 28 32 34 36 36 37 38 37 37 37 37 38 36 34 38 39 38 39 40 38 37 34 31 28 32 36
5 7 7 9 10 9 8 9 15 23 27 32 34 36 32 29 31 33 31 32 37 39 40 42 43 42 40 40 39 40 38 39 43 41 42 43 43 40 37 36 33 33 35
4 8 10 11 11 12 14 16 16 17 20 25 30 34 38 41 42 40 40 39 37 37 40 43 43 45 46 44 44 42 46 43 46 48 46 46 48 44 43 42 40 37 39
6 2 2 5 8 11 14 17 21 24 25 27 27 28 34 42 47 52 52 49 47 43 38 44 46 46 49 49 48 49 48 49 50 53 51 51 50 52 49 49 46 46 45
9 4 0 5 9 12 16 18 20 23 27 32 36 38 36 35 40 47 52 54 55 55 54 48 45 48 51 51 54 53 53 52 55 56 58 55 55 55 58 55 55 53 51
11 7 2 4 9 13 16 17 21 25 28 31 33 36 41 44 43 41 44 51 56 58 57 57 55 50 50 54 55 56 58 59 60 62 62 63 58 58 63 64 63 61 57
16 11 5 2 9 15 19 24 26 29 32 33 35 36 35 35 42 48 46 47 51 57 59 60 59 56 56 57 58 60 59 65 64 65 67 66 66 60 67 71 70 69 64
21 11 5 3 7 11 15 20 25 28 32 36 37 38 39 41 40 41 47 53 55 54 54 63 64 62 64 63 61 62 67 68 69 72 72 70 70 69 68 76 76 75 71
17 11 9 7 7 11 15 21 23 26 28 32 35 38 40 41 44 46 43 45 52 56 60 58 62 69 66 66 68 68 67 72 76 78 80 75 73 74 73 80 82 83 80
19 17 14 9 5 10 17 20 23 23 26 29 34 39 45 48 50 50 52 55 54 57 61 62 66 63 73 67 63 70 72 74 81 84 86 83 80 78 76 78 89 88 86
22 16 12 9 9 14 17 18 21 25 28 30 33 39 44 47 50 53 56 55 57 59 61 66 70 71 72 76 76 75 71 74 79 89 92 92 87 86 82 81 87 92 93
22 18 14 11 11 13 16 21 24 28 33 37 41 46 50 55 58 60 60 60 59 60 60 66 71 73 78 77 81 92 84 74 79 83 91 97 98 94 91 86 89 98 100
27 20 15 12 13 14 17 21 24 28 32 36 40 44 51 57 60 63 67 70 68 70 71 65 64 71 78 81 83 84 98 98 80 73 84 93 103 102 98 93 95 101 105
26 20 17 16 14 15 18 23 27 30 34 37 41 46 52 57 61 63 66 72 77 77 79 81 81 75 70 79 90 93 90 97 103 88 76 93 97 105 104 100 96 104 110
32 27 23 17 15 16 21 26 30 34 37 39 42 47 52 56 60 65 68 72 79 84 85 85 85 82 86 81 81 91 102 97 102 110 94 83 100 101 107 108 103 105 115
36 30 22 17 17 19 23 28 33 36 40 45 49 52 56 58 62 65 68 70 77 85 88 88 88 83 81 84 86 96 99 109 104 111 111 96 98 107 103 108 109 107 116
37 29 23 20 19 22 27 33 37 41 43 46 50 55 60 61 62 65 70 75 77 82 85 87 87 85 81 69 84 96 105 112 117 112 122 108 100 105 114 109 106 112 114
39 32 27 21 19 23 28 33 41 47 50 52 54 56 60 62 64 68 71 76 80 86 87 86 82 85 87 69 62 75 80 90 95 93 101 120 116 106 107 109 107 111 115
49 38 29 22 20 22 27 34 41 48 54 60 63 65 65 67 67 72 72 73 77 83 87 88 87 83 89 85 72 59 40 42 52 54 62 80 101 107 112 117 111 110 117
52 41 30 24 20 23 28 37 45 52 58 61 64 67 67 66 67 70 77 77 78 82 89 94 90 84 77 91 78 75 80 89 72 69 71 59 60 82 96 123 110 114 114
55 42 31 24 23 25 31 40 48 52 57 65 68 73 74 74 72 71 76 76 80 84 89 91 90 82 74 73 70 70 69 86 88 81 83 81 85 68 68 62 114 107 108
57 44 34 27 25 27 33 42 50 55 62 67 70 73 77 79 78 75 77 79 81 86 90 94 91 83 85 90 87 90 87 72 70 73 77 76 78 100 85 67 70 106 109
Wind_Direction_500mb
2 358 350 28 34 342 269 279 294 293 298 297 306 309 306 304 306 304 299 290 287 291 294 291 289 291 286 282 282 283 262 258 255 258 262 262 261 265 256 247 235 229 220
339 332 342 343 351 199 320 277 262 298 307 308 311 308 300 302 303 301 302 308 307 300 297 298 290 281 283 284 283 279 275 259 258 257 259 263 258 259 252 247 236 226 223
314 324 319 319 293 242 206 224 223 235 256 274 283 293 300 304 300 296 291 297 301 303 304 302 302 297 284 278 275 277 273 265 261 256 256 254 258 257 249 248 233 219 217
337 336 331 311 299 277 248 244 243 241 251 260 268 276 280 281 285 291 289 287 290 292 294 298 298 299 295 284 280 271 271 267 263 255 248 250 254 248 246 240 230 215 213
343 339 351 348 353 314 280 256 257 262 261 255 259 268 268 269 272 276 277 281 282 283 288 292 291 294 297 293 282 279 273 265 264 260 251 245 248 247 239 233 228 220 214
17 42 21 25 12 8 355 312 285 276 277 275 269 263 263 272 276 276 277 279 281 282 281 284 288 289 289 291 288 283 279 271 262 260 255 249 242 245 238 233 225 224 216
122 74 59 47 33 20 10 6 356 339 318 300 292 286 281 277 275 280 278 277 279 281 280 281 280 283 285 284 283 280 278 276 269 261 259 252 248 241 231 235 229 224 222
209 220 349 357 360 357 353 346 339 334 325 317 312 304 292 284 280 276 274 276 276 273 274 274 276 277 278 279 278 276 275 276 272 266 259 256 245 244 237 232 231 230 226
215 214 326 31 12 359 350 343 337 329 320 311 303 298 295 294 286 279 275 273 271 274 274 271 270 274 275 275 274 273 270 271 272 270 262 255 251 239 239 228 230 230 229
219 218 219 1 9 5 2 354 349 343 334 325 313 302 291 287 286 287 284 273 271 268 268 270 271 269 269 271 272 272 269 266 266 267 267 258 253 243 239 232 227 229 229
207 207 192 336 351 356 3 7 4 358 352 344 335 325 314 304 294 289 288 286 280 275 271 268 268 270 268 266 267 267 269 267 264 263 264 263 256 247 239 236 228 228 228
210 207 223 311 348 358 6 8 9 3 357 352 346 339 332 326 322 314 304 297 290 286 283 276 273 273 272 270 266 264 263 264 264 262 261 261 261 253 241 237 233 229 229
220 237 262 288 311 343 357 9 8 5 1 355 347 341 335 329 324 321 319 311 304 295 285 281 276 268 270 270 266 265 263 262 261 261 262 258 259 258 249 241 237 231 230
221 226 236 254 298 349 5 5 3 360 358 353 348 341 337 333 329 328 325 323 322 317 309 299 285 281 264 270 274 269 264 263 261 261 260 258 256 258 253 246 241 233 228
229 240 260 295 340 11 8 0 355 352 349 349 345 340 338 335 333 332 328 325 321 318 315 309 303 295 285 272 264 266 269 267 265 261 260 259 255 255 255 248 243 234 229
230 240 264 296 337 355 352 352 349 347 345 345 343 342 339 337 336 335 334 332 327 322 317 313 311 305 296 287 278 265 267 270 266 268 261 259 257 253 252 249 242 238 232
230 242 263 291 310 335 340 340 341 341 338 338 340 339 337 335 335 335 333 333 331 328 323 316 309 305 302 297 288 279 265 264 267 267 268 259 258 255 252 248 243 239 235
232 243 257 273 298 316 329 333 338 338 338 338 335 337 335 332 331 331 331 331 330 328 326 325 321 313 302 297 293 287 279 266 259 265 262 263 260 257 254 249 243 239 237
232 241 250 265 285 312 325 331 335 336 334 334 335 334 331 329 328 329 331 330 327 326 325 323 319 315 309 300 291 285 283 276 264 256 261 259 259 259 256 254 245 239 236
230 240 250 267 293 308 323 329 331 332 335 334 332 332 329 328 326 325 324 324 325 323 322 320 317 313 307 300 293 287 280 277 272 261 254 254 253 254 256 254 252 241 235
229 240 252 272 295 317 324 324 329 333 333 330 328 327 325 324 324 324 322 323 324 320 319 318 318 314 307 298 286 285 281 278 273 267 256 250 252 250 254 255 251 248 237
232 240 252 268 293 310 321 325 329 328 329 329 328 327 324 324 324 323 324 323 323 322 323 322 319 312 302 295 285 284 287 287 272 273 261 252 249 250 255 251 249 246 241
228 238 249 261 286 306 317 322 323 324 328 332 328 326 325 324 324 323 322 321 322 323 321 320 314 307 299 290 275 265 273 264 287 281 262 256 248 251 251 255 244 245 243
228 235 243 255 283 301 315 321 324 327 328 328 325 323 321 321 322 321 321 321 321 321 319 316 312 303 293 286 280 252 262 262 269 287 279 259 253 234 240 246 244 243 239
227 233 239 253 282 301 316 320 322 325 325 323 323 320 319 318 320 321 319 318 317 317 316 312 307 298 289 279 270 273 261 259 256 259 272 276 267 252 235 235 236 237 238
224 230 237 252 280 301 314 317 322 324 324 323 320 317 317 318 319 320 317 315 315 314 313 310 304 294 286 279 267 255 256 268 253 252 257 268 273 263 245 248 273 237 238
Wind_Speed_850mb
14 15 16 10 8 3 5 7 8 8 10 11 12 13 15 17 19 19 18 17 19 23 27 29 32 36 32 28 27 24 25 25 25 25 23 21 22 25 25 26 25 25 26
16 18 15 8 2 1 2 6 6 6 10 14 17 18 18 18 20 22 23 26 27 23 23 26 28 30 36 35 31 28 28 31 30 30 27 24 25 25 25 30 28 27 29
18 19 17 11 6 6 5 8 8 9 10 13 16 16 20 24 26 26 25 27 29 31 29 27 30 31 32 35 33 33 33 33 34 32 32 32 31 25 24 24 28 30 31
14 16 14 8 9 8 13 15 14 12 10 15 18 18 21 24 27 29 32 31 31 32 32 34 33 33 33 35 37 32 35 37 37 35 37 38 35 28 28 26 29 31 33
11 10 8 12 10 9 10 18 20 21 24 24 21 21 24 26 25 28 32 34 36 36 37 38 37 37 37 37 38 36 34 38 39 38 39 40 38 37 34 31 28 32 36
5 7 7 9 10 9 8 9 15 23 27 32 34 36 32 29 31 33 31 32 37 39 40 42 43 42 40 40 39 40 38 39 43 41 42 43 43 40 37 36 33 33 35
4 8 10 11 11 12 14 16 16 17 20 25 30 34 38 41 42 40 40 39 37 37 40 43 43 45 46 44 44 42 46 43 46 48 46 46 48 44 43 42 40 37 39
6 2 2 5 8 11 14 17 21 24 25 27 27 28 34 42 47 52 52 49 47 43 38 44 46 46 49 49 48 49 48 49 50 53 51 51 50 52 49 49 46 46 45
9 4 0 5 9 12 16 18 20 23 27 32 36 38 36 35 40 47 52 54 55 55 54 48 45 48 51 51 54 53 53 52 55 56 58 55 55 55 58 55 55 53 51
11 7 2 4 9 13 16 17 21 25 28 31 33 36 41 44 43 41 44 51 56 58 57 57 55 50 50 54 55 56 58 59 60 62 62 63 58 58 63 64 63 61 57
16 11 5 2 9 15 19 24 26 29 32 33 35 36 35 35 42 48 46 47 51 57 59 60 59 56 56 57 58 60 59 65 64 65 67 66 66 60 67 71 70 69 64
21 11 5 3 7 11 15 20 25 28 32 36 37 38 39 41 40 41 47 53 55 54 54 63 64 62 64 63 61 62 67 68 69 72 72 70 70 69 68 76 76 75 71
17 11 9 7 7 11 15 21 23 26 28 32 35 38 40 41 44 46 43 45 52 56 60 58 62 69 66 66 68 68 67 72 76 78 80 75 73 74 73 80 82 83 80
19 17 14 9 5 10 17 20 23 23 26 29 34 39 45 48 50 50 52 55 54 57 61 62 66 63 73 67 63 70 72 74 81 84 86 83 80 78 76 78 89 88 86
22 16 12 9 9 14 17 18 21 25 28 30 33 39 44 47 50 53 56 55 57 59 61 66 70 71 72 76 76 75 71 74 79 89 92 92 87 86 82 81 87 92 93
22 18 14 11 11 13 16 21 24 28 33 37 41 46 50 55 58 60 60 60 59 60 60 66 71 73 78 77 81 92 84 74 79 83 91 97 98 94 91 86 89 98 100
27 20 15 12 13 14 17 21 24 28 32 36 40 44 51 57 60 63 67 70 68 70 71 65 64 71 78 81 83 84 98 98 80 73 84 93 103 102 98 93 95 101 105
26 20 17 16 14 15 18 23 27 30 34 37 41 46 52 57 61 63 66 72 77 77 79 81 81 75 70 79 90 93 90 97 103 88 76 93 97 105 104 100 96 104 110
32 27 23 17 15 16 21 26 30 34 37 39 42 47 52 56 60 65 68 72 79 84 85 85 85 82 86 81 81 91 102 97 102 110 94 83 100 101 107 108 103 105 115
36 30 22 17 17 19 23 28 33 36 40 45 49 52 56 58 62 65 68 70 77 85 88 88 88 83 81 84 86 96 99 109 104 111 111 96 98 107 103 108 109 107 116
37 29 23 20 19 22 27 33 37 41 43 46 50 55 60 61 62 65 70 75 77 82 85 87 87 85 81 69 84 96 105 112 117 112 122 108 100 105 114 109 106 112 114
39 32 27 21 19 23 28 33 41 47 50 52 54 56 60 62 64 68 71 76 80 86 87 86 82 85 87 69 62 75 80 90 95 93 101 120 116 106 107 109 107 111 115
49 38 29 22 20 22 27 34 41 48 54 60 63 65 65 67 67 72 72 73 77 83 87 88 87 83 89 85 72 59 40 42 52 54 62 80 101 107 112 117 111 110 117
52 41 30 24 20 23 28 37 45 52 58 61 64 67 67 66 67 70 77 77 78 82 89 94 90 84 77 91 78 75 80 89 72 69 71 59 60 82 96 123 110 114 114
55 42 31 24 23 25 31 40 48 52 57 65 68 73 74 74 72 71 76 76 80 84 89 91 90 82 74 73 70 70 69 86 88 81 83 81 85 68 68 62 114 107 108
57 44 34 27 25 27 33 42 50 55 62 67 70 73 77 79 78 75 77 79 81 86 90 94 91 83 85 90 87 90 87 72 70 73 77 76 78 100 85 67 70 106 109
Wind_Direction_850mb
2 358 350 28 34 342 269 279 294 293 298 297 306 309 306 304 306 304 299 290 287 291 294 291 289 291 286 282 282 283 262 258 255 258 262 262 261 265 256 247 235 229 220
339 332 342 343 351 199 320 277 262 298 307 308 311 308 300 302 303 301 302 308 307 300 297 298 290 281 283 284 283 279 275 259 258 257 259 263 258 259 252 247 236 226 223
314 324 319 319 293 242 206 224 223 235 256 274 283 293 300 304 300 296 291 297 301 303 304 302 302 297 284 278 275 277 273 265 261 256 256 254 258 257 249 248 233 219 217
337 336 331 311 299 277 248 244 243 241 251 260 268 276 280 281 285 291 289 287 290 292 294 298 298 299 295 284 280 271 271 267 263 255 248 250 254 248 246 240 230 215 213
343 339 351 348 353 314 280 256 257 262 261 255 259 268 268 269 272 276 277 281 282 283 288 292 291 294 297 293 282 279 273 265 264 260 251 245 248 247 239 233 228 220 214
17 42 21 25 12 8 355 312 285 276 277 275 269 263 263 272 276 276 277 279 281 282 281 284 288 289 289 291 288 283 279 271 262 260 255 249 242 245 238 233 225 224 216
122 74 59 47 33 20 10 6 356 339 318 300 292 286 281 277 275 280 278 277 279 281 280 281 280 283 285 284 283 280 278 276 269 261 259 252 248 241 231 235 229 224 222
209 220 349 357 360 357 353 346 339 334 325 317 312 304 292 284 280 276 274 276 276 273 274 274 276 277 278 279 278 276 275 276 272 266 259 256 245 244 237 232 231 230 226
215 214 326 31 12 359 350 343 337 329 320 311 303 298 295 294 286 279 275 273 271 274 274 271 270 274 275 275 274 273 270 271 272 270 262 255 251 239 239 228 230 230 229
219 218 219 1 9 5 2 354 349 343 334 325 313 302 291 287 286 287 284 273 271 268 268 270 271 269 269 271 272 272 269 266 266 267 267 258 253 243 239 232 227 229 229
207 207 192 336 351 356 3 7 4 358 352 344 335 325 314 304 294 289 288 286 280 275 271 268 268 270 268 266 267 267 269 267 264 263 264 263 256 247 239 236 228 228 228
210 207 223 311 348 358 6 8 9 3 357 352 346 339 332 326 322 314 304 297 290 286 283 276 273 273 272 270 266 264 263 264 264 262 261 261 261 253 241 237 233 229 229
220 237 262 288 311 343 357 9 8 5 1 355 347 341 335 329 324 321 319 311 304 295 285 281 276 268 270 270 266 265 263 262 261 261 262 258 259 258 249 241 237 231 230
221 226 236 254 298 349 5 5 3 360 358 353 348 341 337 333 329 328 325 323 322 317 309 299 285 281 264 270 274 269 264 263 261 261 260 258 256 258 253 246 241 233 228
229 240 260 295 340 11 8 0 355 352 349 349 345 340 338 335 333 332 328 325 321 318 315 309 303 295 285 272 264 266 269 267 265 261 260 259 255 255 255 248 243 234 229
230 240 264 296 337 355 352 352 349 347 345 345 343 342 339 337 336 335 334 332 327 322 317 313 311 305 296 287 278 265 267 270 266 268 261 259 257 253 252 249 242 238 232
230 242 263 291 310 335 340 340 341 341 338 338 340 339 337 335 335 335 333 333 331 328 323 316 309 305 302 297 288 279 265 264 267 267 268 259 258 255 252 248 243 239 235
232 243 257 273 298 316 329 333 338 338 338 338 335 337 335 332 331 331 331 331 330 328 326 325 321 313 302 297 293 287 279 266 259 265 262 263 260 257 254 249 243 239 237
232 241 250 265 285 312 325 331 335 336 334 334 335 334 331 329 328 329 331 330 327 326 325 323 319 315 309 300 291 285 283 276 264 256 261 259 259 259 256 254 245 239 236
230 240 250 267 293 308 323 329 331 332 335 334 332 332 329 328 326 325 324 324 325 323 322 320 317 313 307 300 293 287 280 277 272 261 254 254 253 254 256 254 252 241 235
229 240 252 272 295 317 324 324 329 333 333 330 328 327 325 324 324 324 322 323 324 320 319 318 318 314 307 298 286 285 281 278 273 267 256 250 252 250 254 255 251 248 237
232 240 252 268 293 310 321 325 329 328 329 329 328 327 324 324 324 323 324 323 323 322 323 322 319 312 302 295 285 284 287 287 272 273 261 252 249 250 255 251 249 246 241
228 238 249 261 286 306 317 322 323 324 328 332 328 326 325 324 324 323 322 321 322 323 321 320 314 307 299 290 275 265 273 264 287 281 262 256 248 251 251 255 244 245 243
228 235 243 255 283 301 315 321 324 327 328 328 325 323 321 321 322 321 321 321 321 321 319 316 312 303 293 286 280 252 262 262 269 287 279 259 253 234 240 246 244 243 239
227 233 239 253 282 301 316 320 322 325 325 323 323 320 319 318 320 321 319 318 317 317 316 312 307 298 289 279 270 273 261 259 256 259 272 276 267 252 235 235 236 237 238
224 230 237 252 280 301 314 317 322 324 324 323 320 317 317 318 319 320 317 315 315 314 313 310 304 294 286 279 267 255 256 268 253 252 257 268 273 263 245 248 273 237 238